Precipitable_Water
0.85 0.82 0.81 0.80 0.78 0.76 0.74 0.72 0.71 0.70 0.70 0.69 0.68 0.69 0.68 0.67 0.64 0.64 0.64 0.64 0.63 0.63 0.60 0.58 0.59 0.60 0.61 0.60 0.60 0.59 0.57 0.44 0.35 0.27 0.21 0.18 0.19 0.35 0.39 0.45 0.79 1.08 1.26 1.27 1.35 1.50 1.61 1.69 1.63 1.85 1.80 1.74 1.61 1.56 1.68 1.63 1.70 1.57 1.17 1.12 1.01 1.07 1.06 1.23 1.18 1.21 1.28 1.20 1.31 1.39 1.47 1.48 1.34 1.51 1.60 1.75 1.63 1.66 1.71 1.71 1.80 1.90 1.89 1.97 2.02 2.11 2.07 2.05
0.88 0.85 0.82 0.81 0.79 0.77 0.75 0.73 0.71 0.70 0.69 0.69 0.68 0.68 0.67 0.66 0.63 0.63 0.63 0.63 0.63 0.63 0.60 0.59 0.59 0.60 0.62 0.60 0.60 0.60 0.54 0.42 0.31 0.30 0.21 0.26 0.24 0.34 0.44 0.49 0.52 0.94 1.25 1.16 1.23 1.50 1.50 1.48 1.57 1.73 1.67 1.51 1.72 1.45 1.72 1.47 1.74 1.31 1.17 1.12 0.97 1.11 1.24 1.44 1.33 1.35 1.31 1.21 1.33 1.41 1.49 1.48 1.46 1.58 1.63 1.45 1.44 1.48 1.49 1.61 1.69 1.65 1.81 1.95 2.06 2.01 2.02 1.96
0.88 0.87 0.84 0.82 0.80 0.79 0.76 0.74 0.72 0.70 0.70 0.69 0.69 0.68 0.66 0.65 0.64 0.63 0.62 0.63 0.63 0.63 0.61 0.58 0.58 0.60 0.61 0.61 0.60 0.61 0.52 0.37 0.30 0.19 0.23 0.28 0.27 0.35 0.48 0.54 0.49 0.84 1.02 0.98 1.26 1.58 1.54 1.55 1.64 1.65 1.52 1.42 1.53 1.36 1.54 1.36 1.54 1.42 1.22 1.00 1.03 1.23 1.33 1.56 1.44 1.33 1.36 1.34 1.33 1.41 1.48 1.51 1.53 1.62 1.75 1.48 1.44 1.46 1.36 1.42 1.54 1.56 1.59 1.77 1.91 1.91 1.96 1.93
0.86 0.87 0.85 0.83 0.81 0.80 0.77 0.75 0.72 0.70 0.70 0.70 0.70 0.68 0.66 0.64 0.63 0.62 0.62 0.62 0.63 0.63 0.62 0.59 0.58 0.60 0.61 0.60 0.62 0.61 0.48 0.30 0.22 0.34 0.40 0.33 0.26 0.32 0.44 0.51 0.52 0.69 0.89 1.05 1.31 1.55 1.66 1.69 1.67 1.60 1.45 1.37 1.42 1.51 1.34 1.42 1.33 1.33 1.21 1.02 1.07 1.21 1.15 1.40 1.44 1.31 1.36 1.44 1.42 1.44 1.52 1.45 1.56 1.65 1.65 1.54 1.40 1.38 1.40 1.56 1.50 1.48 1.61 1.73 1.88 1.84 1.89 1.88
0.84 0.85 0.85 0.84 0.82 0.80 0.78 0.75 0.73 0.71 0.71 0.71 0.69 0.67 0.65 0.64 0.64 0.62 0.61 0.61 0.63 0.63 0.62 0.60 0.58 0.59 0.61 0.62 0.60 0.59 0.37 0.23 0.35 0.54 0.58 0.44 0.26 0.30 0.41 0.50 0.52 0.59 0.80 0.96 1.15 1.42 1.52 1.51 1.57 1.49 1.44 1.23 1.32 1.37 1.31 1.42 1.48 1.32 1.13 1.22 1.22 1.27 1.16 1.43 1.40 1.30 1.34 1.48 1.49 1.47 1.37 1.37 1.66 1.66 1.56 1.53 1.30 1.22 1.36 1.55 1.66 1.66 1.71 1.76 1.82 1.80 1.82 1.81
0.81 0.82 0.83 0.83 0.81 0.80 0.78 0.76 0.74 0.72 0.72 0.71 0.69 0.67 0.65 0.65 0.64 0.63 0.61 0.62 0.62 0.63 0.62 0.60 0.59 0.58 0.61 0.61 0.59 0.53 0.31 0.14 0.63 0.62 0.73 0.56 0.31 0.31 0.39 0.49 0.53 0.54 0.74 0.93 1.00 1.18 1.25 1.30 1.36 1.27 1.24 1.23 1.21 1.13 1.25 1.35 1.47 1.03 1.17 1.21 1.26 1.26 1.19 1.42 1.37 1.31 1.37 1.36 1.38 1.39 1.42 1.57 1.47 1.46 1.61 1.59 1.45 1.51 1.63 1.65 1.68 1.68 1.77 1.84 1.95 1.83 1.75 1.77
0.80 0.81 0.81 0.81 0.81 0.80 0.77 0.75 0.74 0.74 0.73 0.71 0.68 0.66 0.65 0.64 0.64 0.63 0.62 0.62 0.63 0.63 0.62 0.60 0.59 0.59 0.60 0.61 0.60 0.46 0.27 0.34 0.53 0.57 0.61 0.58 0.42 0.33 0.40 0.48 0.56 0.49 0.69 0.86 0.98 1.09 1.17 1.14 1.22 1.20 1.17 1.15 1.22 1.18 1.25 1.27 1.38 1.21 1.01 1.19 1.16 1.28 1.20 1.33 1.41 1.41 1.38 1.34 1.34 1.50 1.57 1.38 1.40 1.24 1.55 1.53 1.67 1.71 1.71 1.73 1.72 1.74 1.82 1.86 1.85 1.87 1.77 1.75
0.78 0.79 0.79 0.79 0.79 0.78 0.76 0.74 0.74 0.75 0.74 0.71 0.68 0.65 0.65 0.64 0.64 0.63 0.63 0.63 0.64 0.64 0.63 0.61 0.60 0.59 0.62 0.55 0.40 0.32 0.30 0.24 0.39 0.66 0.59 0.58 0.49 0.38 0.41 0.50 0.49 0.44 0.62 0.85 0.97 1.07 1.16 1.09 1.09 1.20 1.11 1.01 1.12 1.15 1.23 1.21 1.27 1.13 1.07 1.18 1.16 1.23 1.23 1.30 1.37 1.42 1.35 1.35 1.46 1.52 1.40 1.34 1.40 1.35 1.49 1.44 1.65 1.76 1.76 1.76 1.75 1.78 1.79 1.78 1.81 1.84 1.80 1.78
0.77 0.78 0.78 0.78 0.78 0.77 0.75 0.74 0.74 0.75 0.73 0.70 0.68 0.66 0.65 0.65 0.64 0.64 0.64 0.64 0.65 0.65 0.64 0.62 0.59 0.60 0.63 0.54 0.36 0.25 0.31 0.42 0.55 0.68 0.69 0.66 0.54 0.46 0.41 0.33 0.47 0.36 0.68 0.89 0.99 1.14 1.19 1.09 1.12 1.17 0.99 1.02 1.18 1.09 1.18 1.11 1.03 1.18 1.11 1.17 1.15 1.15 1.21 1.24 1.26 1.33 1.39 1.37 1.44 1.38 1.33 1.41 1.47 1.56 1.33 1.46 1.62 1.77 1.81 1.76 1.74 1.77 1.75 1.74 1.78 1.84 1.81 1.80
0.77 0.77 0.77 0.77 0.77 0.76 0.73 0.73 0.74 0.74 0.73 0.69 0.68 0.66 0.65 0.65 0.65 0.65 0.65 0.66 0.66 0.65 0.64 0.61 0.61 0.61 0.54 0.44 0.40 0.23 0.58 0.80 0.75 0.75 0.69 0.65 0.60 0.48 0.32 0.26 0.37 0.37 0.64 0.88 1.00 1.10 1.11 1.10 1.15 1.25 1.23 1.12 1.20 1.07 1.17 1.12 1.00 1.21 1.11 1.11 1.11 1.14 1.20 1.22 1.17 1.21 1.34 1.30 1.39 1.29 1.28 1.32 1.50 1.44 1.15 1.50 1.64 1.79 1.79 1.74 1.76 1.72 1.72 1.76 1.79 1.83 1.85 1.81
0.77 0.77 0.76 0.76 0.76 0.75 0.73 0.73 0.73 0.74 0.72 0.69 0.66 0.65 0.65 0.65 0.65 0.66 0.66 0.66 0.66 0.65 0.62 0.60 0.62 0.59 0.46 0.46 0.27 0.26 0.67 0.80 0.77 0.72 0.68 0.63 0.54 0.40 0.23 0.25 0.33 0.36 0.74 0.91 1.00 1.15 1.25 1.23 1.27 1.31 1.20 1.07 1.11 1.10 1.12 1.12 1.24 1.15 1.10 1.11 1.10 1.16 1.18 1.18 1.17 1.17 1.28 1.26 1.44 1.38 1.29 1.40 1.44 1.42 1.21 1.40 1.64 1.78 1.72 1.74 1.73 1.70 1.71 1.76 1.81 1.80 1.81 1.84
0.75 0.76 0.76 0.75 0.75 0.74 0.73 0.73 0.73 0.73 0.72 0.68 0.65 0.63 0.64 0.65 0.65 0.66 0.65 0.64 0.63 0.62 0.61 0.62 0.62 0.59 0.50 0.40 0.31 0.34 0.64 0.80 0.78 0.73 0.70 0.56 0.43 0.33 0.23 0.25 0.31 0.49 0.76 0.86 1.01 1.15 1.26 1.29 1.22 1.13 0.96 1.21 0.92 1.08 1.03 1.23 1.15 1.07 1.08 0.94 0.99 1.09 1.04 1.09 1.05 1.12 1.21 1.18 1.41 1.45 1.27 1.21 1.25 1.14 1.38 1.49 1.61 1.72 1.70 1.72 1.72 1.69 1.70 1.77 1.84 1.84 1.80 1.82
0.73 0.74 0.75 0.74 0.74 0.74 0.73 0.73 0.73 0.73 0.72 0.68 0.64 0.63 0.63 0.63 0.63 0.63 0.62 0.59 0.60 0.59 0.62 0.63 0.63 0.58 0.43 0.24 0.30 0.51 0.70 0.76 0.74 0.72 0.71 0.55 0.40 0.34 0.25 0.31 0.33 0.54 0.84 0.99 1.03 1.16 1.20 1.19 1.11 0.90 1.04 0.99 0.97 0.86 1.05 1.13 1.07 1.09 1.05 0.99 0.94 0.94 0.90 1.02 1.14 1.16 1.14 1.24 1.39 1.36 0.84 0.95 1.13 1.28 1.44 1.56 1.55 1.63 1.63 1.67 1.71 1.71 1.71 1.76 1.83 1.82 1.81 1.83
0.73 0.73 0.73 0.74 0.74 0.73 0.73 0.72 0.72 0.73 0.72 0.68 0.64 0.63 0.62 0.61 0.61 0.61 0.61 0.59 0.59 0.59 0.62 0.63 0.65 0.56 0.39 0.25 0.45 0.60 0.67 0.68 0.69 0.70 0.62 0.50 0.31 0.23 0.29 0.37 0.45 0.57 0.82 0.92 1.05 1.12 1.05 1.00 0.95 0.91 1.01 0.91 0.88 1.18 0.99 0.99 1.07 0.87 0.96 1.03 0.85 0.82 0.76 1.01 1.07 1.14 1.05 1.33 1.34 1.29 0.85 0.94 1.13 1.32 1.50 1.58 1.59 1.51 1.51 1.61 1.72 1.72 1.73 1.75 1.81 1.82 1.79 1.79
0.73 0.71 0.72 0.73 0.73 0.73 0.72 0.72 0.72 0.72 0.72 0.69 0.63 0.62 0.62 0.60 0.60 0.60 0.61 0.59 0.59 0.62 0.63 0.65 0.61 0.47 0.31 0.34 0.55 0.64 0.73 0.65 0.56 0.62 0.65 0.41 0.28 0.24 0.30 0.39 0.45 0.68 0.76 0.84 0.94 1.01 0.95 0.91 0.88 0.80 0.75 0.99 1.01 0.89 0.82 0.87 0.89 0.90 0.81 0.72 0.84 0.78 0.81 0.96 1.09 1.09 0.94 1.23 1.36 1.22 0.87 0.93 1.10 1.28 1.51 1.59 1.57 1.52 1.47 1.59 1.70 1.78 1.72 1.75 1.80 1.81 1.79 1.78
0.73 0.71 0.70 0.72 0.72 0.73 0.72 0.72 0.72 0.73 0.72 0.69 0.62 0.64 0.66 0.65 0.62 0.62 0.63 0.60 0.60 0.63 0.64 0.51 0.52 0.50 0.32 0.27 0.46 0.65 0.58 0.44 0.45 0.59 0.66 0.47 0.32 0.23 0.34 0.38 0.44 0.64 0.78 0.82 0.98 0.91 0.89 0.90 0.76 0.75 0.80 0.86 0.78 0.74 0.76 0.76 0.75 0.82 0.78 0.72 0.73 0.78 0.78 0.86 1.01 1.09 1.10 1.13 1.28 1.12 0.84 1.01 1.08 1.34 1.50 1.61 1.55 1.47 1.45 1.58 1.61 1.66 1.74 1.75 1.75 1.81 1.79 1.79
0.72 0.71 0.70 0.70 0.71 0.72 0.72 0.71 0.71 0.73 0.72 0.68 0.65 0.68 0.72 0.71 0.69 0.67 0.66 0.61 0.61 0.66 0.61 0.51 0.57 0.56 0.21 0.44 0.64 0.49 0.47 0.50 0.56 0.57 0.60 0.55 0.32 0.34 0.41 0.45 0.44 0.51 0.70 0.85 0.89 0.85 0.85 0.76 0.76 0.70 0.75 0.66 0.71 0.70 0.62 0.59 0.61 0.69 0.82 0.72 0.76 0.72 0.76 0.73 0.95 1.07 1.14 1.08 0.97 1.14 0.97 1.00 1.14 1.32 1.45 1.55 1.52 1.43 1.39 1.52 1.60 1.65 1.71 1.74 1.75 1.73 1.78 1.76
0.72 0.72 0.70 0.69 0.70 0.71 0.72 0.71 0.71 0.72 0.73 0.69 0.67 0.68 0.70 0.78 0.74 0.68 0.66 0.64 0.66 0.63 0.61 0.68 0.60 0.42 0.28 0.53 0.37 0.41 0.54 0.52 0.52 0.57 0.59 0.50 0.54 0.52 0.59 0.50 0.50 0.59 0.71 0.72 0.80 0.67 0.78 0.65 0.60 0.47 0.60 0.61 0.59 0.58 0.52 0.44 0.56 0.64 0.70 0.70 0.71 0.78 0.80 0.75 0.76 0.94 1.08 1.08 0.96 1.02 0.98 1.02 1.16 1.30 1.40 1.47 1.52 1.43 1.37 1.48 1.61 1.64 1.67 1.72 1.73 1.72 1.72 1.75
0.73 0.72 0.70 0.68 0.69 0.71 0.72 0.71 0.71 0.73 0.73 0.69 0.71 0.72 0.77 0.82 0.75 0.68 0.60 0.55 0.41 0.33 0.27 0.30 0.42 0.29 0.24 0.37 0.50 0.52 0.49 0.51 0.55 0.56 0.50 0.45 0.58 0.64 0.71 0.79 0.66 0.54 0.54 0.56 0.59 0.63 0.69 0.58 0.51 0.39 0.35 0.42 0.42 0.53 0.56 0.58 0.66 0.66 0.72 0.72 0.72 0.67 0.71 0.74 0.83 0.99 1.02 0.98 0.94 0.94 0.87 0.97 1.13 1.22 1.37 1.47 1.50 1.40 1.39 1.50 1.61 1.66 1.67 1.69 1.72 1.72 1.74 1.76
0.72 0.72 0.69 0.68 0.68 0.70 0.71 0.72 0.72 0.74 0.73 0.64 0.61 0.63 0.69 0.65 0.59 0.48 0.59 0.53 0.39 0.32 0.46 0.45 0.48 0.49 0.53 0.51 0.47 0.57 0.65 0.61 0.50 0.53 0.51 0.58 0.57 0.56 0.61 0.71 0.70 0.59 0.51 0.41 0.50 0.55 0.63 0.37 0.29 0.25 0.28 0.36 0.49 0.59 0.62 0.66 0.69 0.71 0.73 0.73 0.68 0.69 0.73 0.81 0.84 0.92 1.08 0.96 0.93 0.93 0.97 1.01 1.10 1.20 1.32 1.44 1.47 1.39 1.38 1.39 1.51 1.60 1.60 1.64 1.67 1.69 1.73 1.74
0.72 0.70 0.69 0.67 0.67 0.70 0.72 0.72 0.74 0.75 0.73 0.65 0.60 0.55 0.43 0.45 0.35 0.33 0.42 0.41 0.48 0.50 0.43 0.46 0.51 0.56 0.54 0.59 0.64 0.59 0.51 0.51 0.59 0.52 0.52 0.67 0.64 0.60 0.60 0.61 0.56 0.37 0.42 0.44 0.43 0.50 0.43 0.32 0.24 0.29 0.33 0.43 0.49 0.53 0.57 0.60 0.63 0.64 0.66 0.66 0.63 0.68 0.66 0.76 0.79 0.90 1.04 0.87 0.85 1.00 0.98 1.00 1.11 1.26 1.34 1.43 1.41 1.28 1.31 1.36 1.44 1.55 1.59 1.61 1.63 1.66 1.69 1.75
0.70 0.69 0.67 0.67 0.67 0.69 0.72 0.73 0.76 0.75 0.71 0.65 0.54 0.48 0.51 0.57 0.61 0.62 0.50 0.30 0.42 0.49 0.49 0.49 0.57 0.52 0.63 0.66 0.70 0.69 0.64 0.52 0.55 0.52 0.60 0.73 0.65 0.57 0.62 0.48 0.46 0.34 0.35 0.41 0.39 0.32 0.30 0.33 0.34 0.41 0.49 0.52 0.53 0.57 0.59 0.57 0.57 0.60 0.60 0.64 0.60 0.66 0.72 0.79 0.83 0.86 0.93 0.86 0.82 0.94 0.90 0.98 1.14 1.25 1.37 1.36 1.33 1.34 1.41 1.38 1.42 1.50 1.57 1.60 1.63 1.68 1.73 1.77
0.71 0.69 0.67 0.66 0.67 0.70 0.72 0.76 0.77 0.71 0.61 0.53 0.43 0.49 0.50 0.62 0.69 0.70 0.63 0.44 0.36 0.48 0.46 0.47 0.46 0.47 0.49 0.65 0.69 0.79 0.60 0.52 0.50 0.50 0.58 0.68 0.74 0.68 0.63 0.43 0.40 0.38 0.36 0.32 0.26 0.25 0.28 0.35 0.40 0.47 0.52 0.50 0.50 0.52 0.53 0.54 0.54 0.50 0.55 0.59 0.54 0.65 0.66 0.61 0.77 0.83 0.89 0.84 0.80 0.93 0.90 1.02 1.20 1.31 1.34 1.42 1.38 1.39 1.48 1.46 1.48 1.54 1.56 1.60 1.63 1.67 1.69 1.72
0.70 0.69 0.67 0.66 0.68 0.70 0.75 0.77 0.77 0.65 0.58 0.53 0.47 0.46 0.56 0.61 0.63 0.64 0.53 0.34 0.28 0.39 0.43 0.47 0.48 0.46 0.43 0.47 0.68 0.62 0.48 0.55 0.55 0.46 0.74 0.66 0.60 0.66 0.56 0.42 0.35 0.34 0.30 0.30 0.28 0.25 0.32 0.38 0.41 0.43 0.43 0.45 0.42 0.43 0.43 0.42 0.40 0.46 0.49 0.51 0.55 0.64 0.70 0.67 0.71 0.81 0.89 0.97 0.99 0.96 0.91 0.98 1.10 1.07 1.16 1.34 1.46 1.43 1.45 1.47 1.49 1.55 1.61 1.69 1.75 1.75 1.75 1.71
0.70 0.68 0.68 0.67 0.69 0.73 0.76 0.78 0.65 0.61 0.70 0.65 0.61 0.68 0.69 0.68 0.68 0.67 0.51 0.40 0.39 0.42 0.53 0.46 0.48 0.44 0.47 0.56 0.53 0.40 0.46 0.55 0.52 0.63 0.75 0.69 0.63 0.58 0.47 0.47 0.38 0.28 0.30 0.31 0.31 0.29 0.32 0.36 0.39 0.37 0.38 0.40 0.40 0.40 0.43 0.44 0.42 0.47 0.56 0.56 0.58 0.67 0.68 0.71 0.74 0.72 0.75 0.76 0.93 0.83 0.63 0.70 0.96 1.04 1.09 1.23 1.31 1.32 1.42 1.38 1.39 1.47 1.52 1.60 1.65 1.67 1.74 1.77
0.69 0.69 0.68 0.69 0.72 0.73 0.79 0.65 0.67 0.74 0.69 0.61 0.67 0.75 0.75 0.76 0.71 0.72 0.57 0.36 0.27 0.35 0.34 0.28 0.40 0.30 0.52 0.41 0.46 0.41 0.50 0.41 0.53 0.64 0.72 0.67 0.72 0.56 0.49 0.40 0.37 0.26 0.30 0.30 0.31 0.29 0.31 0.38 0.36 0.34 0.35 0.35 0.35 0.38 0.45 0.46 0.41 0.41 0.53 0.69 0.68 0.68 0.67 0.69 0.69 0.67 0.59 0.53 0.74 0.91 0.56 0.52 0.90 0.92 1.05 1.14 1.18 1.25 1.39 1.35 1.35 1.44 1.48 1.52 1.58 1.67 1.70 1.72
0.69 0.68 0.69 0.71 0.73 0.79 0.60 0.61 0.81 0.75 0.57 0.58 0.74 0.75 0.72 0.75 0.76 0.71 0.50 0.33 0.26 0.36 0.27 0.34 0.34 0.41 0.45 0.44 0.41 0.43 0.24 0.36 0.55 0.63 0.64 0.65 0.54 0.64 0.40 0.37 0.41 0.42 0.43 0.44 0.33 0.23 0.36 0.37 0.38 0.38 0.34 0.35 0.38 0.37 0.50 0.50 0.46 0.43 0.61 0.67 0.69 0.65 0.64 0.66 0.62 0.62 0.60 0.68 0.77 0.85 0.76 0.57 0.63 0.85 1.08 1.15 1.12 1.20 1.25 1.30 1.33 1.38 1.44 1.47 1.54 1.63 1.70 1.73
0.69 0.69 0.70 0.73 0.76 0.80 0.67 0.71 0.69 0.63 0.60 0.68 0.74 0.72 0.73 0.77 0.84 0.78 0.55 0.24 0.28 0.42 0.28 0.31 0.40 0.49 0.45 0.43 0.39 0.38 0.41 0.51 0.41 0.50 0.64 0.61 0.54 0.52 0.46 0.38 0.38 0.41 0.47 0.43 0.25 0.36 0.41 0.38 0.40 0.37 0.38 0.38 0.35 0.41 0.49 0.56 0.48 0.48 0.61 0.67 0.66 0.66 0.68 0.63 0.64 0.61 0.62 0.58 0.53 0.66 0.81 0.60 0.61 0.84 1.07 1.13 1.00 1.08 1.14 1.22 1.28 1.34 1.40 1.44 1.49 1.57 1.64 1.74
0.68 0.70 0.72 0.76 0.79 0.81 0.81 0.69 0.65 0.60 0.69 0.75 0.71 0.72 0.78 0.87 0.83 0.64 0.41 0.22 0.39 0.39 0.47 0.33 0.50 0.44 0.40 0.40 0.39 0.41 0.44 0.50 0.44 0.52 0.64 0.63 0.53 0.50 0.37 0.45 0.47 0.45 0.49 0.42 0.32 0.36 0.42 0.43 0.43 0.41 0.38 0.34 0.38 0.39 0.47 0.55 0.50 0.61 0.65 0.66 0.67 0.71 0.68 0.66 0.60 0.58 0.58 0.50 0.45 0.55 0.69 0.54 0.56 0.80 0.90 1.08 1.02 0.99 1.07 1.19 1.25 1.33 1.36 1.39 1.44 1.53 1.61 1.69
0.71 0.72 0.76 0.78 0.77 0.72 0.71 0.72 0.62 0.73 0.77 0.77 0.74 0.80 0.84 0.80 0.67 0.50 0.35 0.21 0.40 0.30 0.41 0.37 0.39 0.33 0.36 0.33 0.35 0.41 0.39 0.43 0.45 0.54 0.58 0.52 0.49 0.46 0.45 0.53 0.49 0.45 0.42 0.41 0.39 0.39 0.42 0.48 0.48 0.40 0.36 0.37 0.37 0.42 0.46 0.47 0.50 0.62 0.65 0.60 0.62 0.64 0.62 0.63 0.61 0.58 0.55 0.45 0.50 0.59 0.67 0.60 0.48 0.68 0.81 0.83 0.88 0.93 1.05 1.16 1.28 1.36 1.38 1.41 1.45 1.50 1.56 1.63
0.72 0.76 0.78 0.80 0.64 0.67 0.65 0.49 0.63 0.78 0.78 0.80 0.84 0.84 0.80 0.69 0.50 0.37 0.24 0.30 0.41 0.38 0.44 0.36 0.32 0.37 0.31 0.29 0.28 0.36 0.36 0.37 0.45 0.48 0.46 0.52 0.46 0.42 0.42 0.41 0.50 0.43 0.40 0.36 0.35 0.38 0.40 0.42 0.39 0.39 0.38 0.40 0.40 0.40 0.45 0.50 0.54 0.64 0.66 0.59 0.57 0.55 0.57 0.54 0.57 0.64 0.48 0.43 0.54 0.65 0.66 0.67 0.47 0.62 0.84 0.96 1.03 1.07 1.06 1.05 1.13 1.20 1.26 1.32 1.40 1.47 1.54 1.62
0.74 0.78 0.80 0.75 0.72 0.75 0.55 0.50 0.64 0.76 0.81 0.88 0.88 0.76 0.64 0.41 0.46 0.31 0.26 0.45 0.32 0.33 0.33 0.31 0.35 0.33 0.29 0.31 0.30 0.31 0.30 0.34 0.46 0.44 0.43 0.42 0.39 0.34 0.31 0.31 0.36 0.30 0.28 0.27 0.28 0.36 0.33 0.34 0.39 0.39 0.41 0.37 0.35 0.30 0.31 0.39 0.48 0.55 0.59 0.58 0.47 0.42 0.46 0.38 0.46 0.43 0.43 0.43 0.55 0.62 0.63 0.56 0.57 0.65 0.77 0.92 1.00 1.05 1.12 1.15 1.15 1.18 1.22 1.30 1.38 1.46 1.53 1.61
0.75 0.77 0.78 0.76 0.75 0.66 0.69 0.76 0.79 0.81 0.87 0.91 0.82 0.71 0.55 0.44 0.27 0.36 0.36 0.38 0.29 0.39 0.32 0.38 0.32 0.33 0.30 0.30 0.29 0.32 0.35 0.35 0.44 0.45 0.45 0.45 0.36 0.37 0.37 0.32 0.38 0.32 0.22 0.29 0.30 0.27 0.29 0.36 0.38 0.39 0.41 0.42 0.39 0.31 0.30 0.31 0.43 0.50 0.50 0.51 0.44 0.40 0.38 0.34 0.39 0.45 0.47 0.53 0.59 0.61 0.66 0.56 0.65 0.72 0.83 0.85 0.96 1.03 1.07 1.12 1.19 1.20 1.22 1.28 1.36 1.44 1.52 1.59
0.76 0.78 0.72 0.78 0.75 0.73 0.72 0.81 0.85 0.92 0.90 0.87 0.79 0.69 0.58 0.40 0.33 0.53 0.40 0.36 0.34 0.40 0.38 0.37 0.35 0.35 0.34 0.30 0.30 0.34 0.32 0.39 0.47 0.46 0.45 0.39 0.36 0.30 0.32 0.31 0.34 0.30 0.28 0.29 0.27 0.26 0.22 0.23 0.33 0.35 0.35 0.43 0.40 0.36 0.33 0.33 0.42 0.47 0.57 0.52 0.50 0.45 0.39 0.34 0.39 0.36 0.38 0.43 0.54 0.66 0.56 0.52 0.52 0.61 0.84 0.95 1.00 1.04 1.09 1.11 1.11 1.16 1.24 1.33 1.42 1.46 1.51 1.56
0.78 0.76 0.78 0.81 0.81 0.79 0.78 0.83 0.92 0.95 0.90 0.81 0.68 0.61 0.45 0.41 0.50 0.42 0.42 0.40 0.37 0.40 0.38 0.42 0.38 0.38 0.36 0.36 0.36 0.35 0.37 0.34 0.44 0.45 0.42 0.38 0.32 0.29 0.26 0.27 0.29 0.29 0.28 0.24 0.28 0.29 0.28 0.29 0.39 0.46 0.45 0.43 0.39 0.41 0.44 0.41 0.37 0.45 0.51 0.59 0.52 0.48 0.58 0.43 0.45 0.43 0.43 0.44 0.49 0.55 0.56 0.61 0.62 0.83 0.94 1.01 1.03 1.05 1.04 1.03 1.07 1.12 1.24 1.35 1.39 1.42 1.45 1.53
0.74 0.74 0.78 0.73 0.74 0.80 0.85 0.88 0.95 0.94 0.87 0.74 0.61 0.52 0.45 0.49 0.44 0.53 0.40 0.43 0.38 0.36 0.38 0.40 0.40 0.37 0.35 0.36 0.38 0.35 0.38 0.36 0.41 0.45 0.41 0.38 0.36 0.31 0.31 0.28 0.27 0.29 0.24 0.22 0.30 0.27 0.30 0.32 0.44 0.47 0.48 0.43 0.42 0.44 0.44 0.45 0.33 0.45 0.51 0.49 0.54 0.64 0.59 0.51 0.49 0.52 0.50 0.45 0.44 0.57 0.58 0.66 0.77 0.85 0.90 0.95 0.95 0.94 0.95 1.00 1.04 1.09 1.19 1.27 1.29 1.37 1.44 1.49
0.66 0.73 0.62 0.69 0.71 0.84 0.89 0.92 0.94 0.94 0.86 0.72 0.59 0.47 0.56 0.54 0.57 0.53 0.53 0.43 0.38 0.39 0.37 0.32 0.32 0.35 0.32 0.33 0.35 0.35 0.35 0.37 0.39 0.41 0.36 0.40 0.33 0.35 0.33 0.31 0.34 0.30 0.31 0.33 0.32 0.37 0.28 0.30 0.42 0.44 0.42 0.47 0.49 0.47 0.47 0.45 0.45 0.45 0.40 0.51 0.64 0.67 0.62 0.51 0.40 0.44 0.41 0.36 0.42 0.53 0.47 0.51 0.55 0.49 0.76 0.81 0.83 0.88 0.92 0.97 1.03 1.07 1.16 1.17 1.23 1.31 1.39 1.47
0.66 0.71 0.67 0.65 0.77 0.90 0.87 0.90 0.90 0.85 0.77 0.66 0.55 0.56 0.65 0.51 0.56 0.54 0.55 0.42 0.40 0.39 0.36 0.34 0.34 0.40 0.34 0.35 0.35 0.35 0.36 0.33 0.37 0.41 0.39 0.40 0.33 0.39 0.35 0.34 0.37 0.37 0.35 0.40 0.34 0.33 0.36 0.30 0.40 0.45 0.45 0.46 0.49 0.48 0.47 0.47 0.52 0.43 0.45 0.67 0.50 0.43 0.40 0.49 0.45 0.36 0.35 0.36 0.38 0.45 0.49 0.51 0.55 0.53 0.64 0.69 0.73 0.81 0.87 0.96 1.01 1.03 1.09 1.11 1.18 1.29 1.40 1.51
0.75 0.74 0.59 0.73 0.96 1.00 0.84 0.87 0.84 0.76 0.67 0.57 0.54 0.52 0.58 0.55 0.54 0.53 0.52 0.51 0.45 0.37 0.35 0.35 0.34 0.37 0.37 0.36 0.36 0.38 0.36 0.30 0.37 0.37 0.36 0.37 0.36 0.40 0.37 0.35 0.33 0.37 0.40 0.37 0.32 0.36 0.37 0.32 0.37 0.47 0.46 0.46 0.45 0.43 0.37 0.41 0.47 0.50 0.55 0.54 0.63 0.55 0.49 0.44 0.45 0.45 0.40 0.35 0.36 0.39 0.45 0.42 0.57 0.58 0.61 0.66 0.70 0.78 0.86 0.92 0.94 1.01 1.08 1.11 1.15 1.26 1.36 1.46
0.69 0.64 0.56 0.89 1.03 1.04 0.89 0.80 0.73 0.71 0.61 0.51 0.53 0.51 0.58 0.50 0.50 0.49 0.50 0.47 0.44 0.39 0.37 0.38 0.38 0.36 0.35 0.37 0.36 0.34 0.36 0.33 0.33 0.35 0.34 0.38 0.39 0.42 0.38 0.38 0.34 0.38 0.41 0.39 0.34 0.35 0.33 0.40 0.33 0.42 0.49 0.46 0.39 0.40 0.38 0.39 0.37 0.39 0.42 0.45 0.52 0.52 0.58 0.53 0.51 0.44 0.39 0.36 0.38 0.37 0.37 0.45 0.56 0.66 0.68 0.68 0.72 0.77 0.83 0.87 0.96 1.04 1.10 1.14 1.19 1.27 1.37 1.47
0.83 0.63 0.61 0.98 1.04 1.03 0.84 0.71 0.62 0.55 0.54 0.60 0.64 0.55 0.55 0.49 0.50 0.49 0.48 0.47 0.46 0.46 0.42 0.41 0.39 0.39 0.35 0.34 0.34 0.35 0.34 0.33 0.34 0.33 0.32 0.34 0.38 0.34 0.40 0.42 0.42 0.41 0.40 0.38 0.37 0.36 0.33 0.37 0.36 0.41 0.41 0.40 0.42 0.46 0.48 0.46 0.43 0.39 0.38 0.41 0.45 0.44 0.42 0.39 0.36 0.44 0.42 0.39 0.38 0.36 0.35 0.45 0.58 0.70 0.71 0.72 0.76 0.77 0.86 0.92 0.97 1.05 1.09 1.13 1.21 1.32 1.41 1.47
0.69 0.52 0.59 0.97 1.02 0.91 0.69 0.56 0.58 0.62 0.59 0.55 0.53 0.56 0.49 0.60 0.51 0.46 0.46 0.47 0.46 0.44 0.47 0.42 0.42 0.42 0.36 0.37 0.35 0.34 0.32 0.31 0.32 0.34 0.34 0.31 0.38 0.38 0.37 0.44 0.44 0.42 0.39 0.35 0.38 0.42 0.39 0.42 0.41 0.38 0.39 0.39 0.42 0.46 0.50 0.50 0.46 0.43 0.39 0.39 0.44 0.45 0.46 0.40 0.32 0.36 0.38 0.40 0.44 0.43 0.37 0.43 0.60 0.67 0.70 0.75 0.77 0.79 0.89 0.96 0.98 1.05 1.08 1.13 1.22 1.33 1.45 1.55
0.71 0.60 0.82 0.94 0.92 0.81 0.63 0.53 0.59 0.59 0.58 0.63 0.66 0.59 0.60 0.56 0.52 0.49 0.49 0.48 0.44 0.47 0.46 0.42 0.42 0.43 0.38 0.42 0.41 0.40 0.32 0.31 0.35 0.30 0.31 0.31 0.33 0.37 0.40 0.41 0.43 0.42 0.39 0.42 0.41 0.42 0.43 0.39 0.38 0.39 0.43 0.46 0.48 0.51 0.50 0.48 0.45 0.38 0.39 0.43 0.40 0.40 0.42 0.40 0.36 0.39 0.34 0.40 0.40 0.41 0.39 0.45 0.61 0.69 0.73 0.78 0.80 0.86 0.92 0.93 0.94 1.03 1.09 1.13 1.17 1.27 1.40 1.51
0.68 0.66 0.69 0.86 0.88 0.79 0.59 0.46 0.47 0.54 0.60 0.65 0.60 0.52 0.56 0.54 0.54 0.49 0.50 0.48 0.45 0.46 0.46 0.46 0.46 0.46 0.42 0.46 0.43 0.41 0.35 0.33 0.37 0.37 0.31 0.32 0.33 0.40 0.41 0.42 0.44 0.43 0.42 0.45 0.40 0.45 0.33 0.39 0.39 0.35 0.36 0.40 0.42 0.46 0.44 0.47 0.45 0.40 0.37 0.38 0.40 0.42 0.43 0.43 0.42 0.43 0.34 0.40 0.44 0.39 0.32 0.42 0.59 0.70 0.74 0.80 0.83 0.83 0.87 0.95 1.00 0.99 1.05 1.11 1.16 1.25 1.37 1.49
0.74 0.79 0.76 0.75 0.82 0.73 0.52 0.57 0.56 0.57 0.61 0.58 0.53 0.47 0.48 0.51 0.50 0.53 0.51 0.46 0.49 0.47 0.46 0.47 0.48 0.46 0.45 0.47 0.47 0.48 0.43 0.42 0.41 0.41 0.44 0.39 0.36 0.41 0.42 0.44 0.44 0.42 0.46 0.50 0.48 0.47 0.36 0.39 0.39 0.33 0.31 0.31 0.30 0.32 0.34 0.38 0.39 0.42 0.42 0.40 0.36 0.37 0.38 0.38 0.35 0.37 0.31 0.41 0.42 0.37 0.37 0.52 0.63 0.69 0.70 0.76 0.78 0.84 0.89 0.96 1.03 1.04 1.03 1.09 1.17 1.22 1.33 1.43
0.63 0.53 0.66 0.70 0.74 0.69 0.68 0.70 0.69 0.64 0.60 0.55 0.49 0.48 0.52 0.49 0.50 0.53 0.52 0.48 0.46 0.50 0.49 0.49 0.49 0.47 0.48 0.44 0.45 0.46 0.44 0.51 0.45 0.42 0.45 0.42 0.42 0.43 0.46 0.45 0.41 0.39 0.43 0.46 0.47 0.45 0.38 0.40 0.43 0.44 0.40 0.37 0.38 0.41 0.46 0.47 0.43 0.39 0.39 0.39 0.38 0.41 0.41 0.40 0.39 0.35 0.32 0.37 0.36 0.41 0.41 0.49 0.55 0.62 0.64 0.70 0.76 0.78 0.85 0.95 0.97 0.98 1.05 1.13 1.20 1.23 1.30 1.37
0.78 0.60 0.57 0.53 0.65 0.63 0.61 0.65 0.66 0.69 0.61 0.63 0.49 0.50 0.48 0.51 0.53 0.51 0.47 0.40 0.45 0.47 0.48 0.50 0.50 0.48 0.49 0.46 0.46 0.45 0.49 0.51 0.52 0.49 0.49 0.49 0.50 0.49 0.50 0.45 0.42 0.42 0.41 0.42 0.44 0.42 0.39 0.35 0.40 0.42 0.42 0.43 0.43 0.44 0.46 0.46 0.42 0.41 0.38 0.38 0.39 0.39 0.40 0.38 0.35 0.32 0.39 0.35 0.32 0.46 0.52 0.46 0.51 0.58 0.62 0.69 0.79 0.83 0.87 0.93 0.97 1.00 1.05 1.12 1.16 1.23 1.31 1.37
0.61 0.71 0.73 0.74 0.57 0.51 0.55 0.58 0.70 0.71 0.69 0.67 0.56 0.58 0.52 0.55 0.54 0.45 0.46 0.46 0.46 0.48 0.45 0.47 0.53 0.52 0.49 0.48 0.50 0.46 0.48 0.50 0.53 0.51 0.56 0.54 0.53 0.52 0.48 0.47 0.43 0.46 0.46 0.45 0.47 0.39 0.36 0.34 0.41 0.40 0.38 0.41 0.43 0.43 0.45 0.44 0.42 0.41 0.40 0.40 0.38 0.40 0.40 0.37 0.36 0.37 0.40 0.36 0.39 0.51 0.55 0.50 0.53 0.61 0.67 0.71 0.75 0.79 0.85 0.90 0.98 1.03 1.11 1.17 1.17 1.18 1.22 1.29
0.80 0.79 0.78 0.81 0.59 0.61 0.62 0.65 0.72 0.70 0.64 0.62 0.56 0.58 0.56 0.57 0.56 0.59 0.57 0.44 0.44 0.52 0.49 0.44 0.51 0.56 0.55 0.56 0.53 0.49 0.50 0.47 0.49 0.54 0.54 0.52 0.50 0.51 0.50 0.48 0.47 0.53 0.49 0.47 0.45 0.46 0.37 0.32 0.35 0.39 0.38 0.39 0.44 0.45 0.46 0.42 0.41 0.40 0.39 0.38 0.38 0.39 0.40 0.39 0.38 0.38 0.44 0.46 0.47 0.51 0.56 0.55 0.61 0.67 0.70 0.74 0.85 0.88 0.93 1.00 1.03 1.02 1.04 1.11 1.12 1.14 1.20 1.28
0.64 0.69 0.68 0.80 0.77 0.66 0.64 0.68 0.69 0.64 0.57 0.61 0.53 0.57 0.58 0.56 0.55 0.59 0.60 0.56 0.48 0.51 0.57 0.51 0.54 0.58 0.59 0.59 0.58 0.53 0.56 0.58 0.56 0.51 0.57 0.54 0.51 0.51 0.51 0.55 0.50 0.52 0.49 0.47 0.42 0.43 0.31 0.36 0.37 0.40 0.38 0.39 0.43 0.45 0.46 0.45 0.43 0.38 0.39 0.38 0.40 0.40 0.39 0.41 0.43 0.45 0.48 0.52 0.55 0.54 0.56 0.57 0.70 0.75 0.74 0.86 0.93 0.97 0.98 0.94 0.97 1.00 1.04 1.09 1.09 1.12 1.20 1.29
0.78 0.87 0.86 0.66 0.61 0.64 0.66 0.65 0.62 0.60 0.56 0.57 0.54 0.59 0.60 0.58 0.59 0.60 0.59 0.67 0.60 0.55 0.54 0.54 0.58 0.58 0.60 0.59 0.59 0.58 0.62 0.62 0.61 0.60 0.62 0.59 0.50 0.55 0.50 0.52 0.57 0.51 0.51 0.49 0.46 0.47 0.42 0.40 0.39 0.41 0.36 0.37 0.41 0.42 0.43 0.43 0.40 0.37 0.37 0.40 0.41 0.39 0.37 0.46 0.43 0.53 0.48 0.52 0.56 0.57 0.54 0.54 0.67 0.76 0.80 0.87 0.89 0.88 0.87 0.91 0.97 0.99 1.03 1.07 1.06 1.13 1.20 1.29
0.72 0.83 0.88 0.73 0.56 0.68 0.62 0.67 0.67 0.60 0.49 0.57 0.61 0.60 0.60 0.59 0.64 0.62 0.54 0.65 0.68 0.67 0.63 0.61 0.61 0.58 0.58 0.57 0.58 0.61 0.65 0.67 0.67 0.68 0.67 0.66 0.64 0.61 0.60 0.59 0.58 0.55 0.53 0.51 0.52 0.49 0.44 0.41 0.38 0.39 0.35 0.35 0.41 0.43 0.41 0.40 0.37 0.35 0.40 0.46 0.47 0.44 0.48 0.58 0.58 0.58 0.54 0.56 0.52 0.51 0.57 0.70 0.75 0.79 0.77 0.82 0.84 0.84 0.88 0.92 0.97 1.03 1.04 1.07 1.08 1.13 1.21 1.30
Wind_Speed
14 14 14 14 14 14 14 14 14 15 15 15 15 14 14 14 14 13 13 13 12 12 12 11 11 10 10 9 9 9 8 8 7 7 7 6 7 7 7 7 7 6 5 4 4 5 4 3 2 2 2 2 2 3 3 4 4 5 6 6 7 6 7 7 7 7 8 8 6 5 4 3 2 1 2 3 4 6 6 4 6 7 8 9 10 13 17 19
14 14 14 14 14 14 15 15 15 15 15 15 15 15 14 14 14 14 13 13 13 12 12 12 11 11 10 9 9 8 8 8 7 8 8 7 8 9 8 8 8 7 6 5 6 6 5 3 3 3 1 2 2 2 3 3 4 4 5 6 5 5 6 7 7 7 7 8 7 6 5 3 2 2 3 3 4 6 6 5 6 8 9 9 11 14 17 18
14 14 15 15 15 15 15 15 15 15 15 15 15 15 14 14 14 14 13 13 12 12 12 11 11 10 10 9 9 8 8 8 7 8 7 8 9 10 9 8 9 9 7 6 7 6 5 3 4 3 1 1 2 1 2 3 3 3 4 5 4 4 6 7 7 6 5 8 8 7 6 4 3 2 2 3 4 6 7 6 7 9 11 11 12 15 17 18
15 15 15 15 15 15 15 15 15 15 15 15 15 15 15 14 14 14 13 13 12 12 11 11 10 10 9 9 8 8 8 7 7 7 6 8 10 10 9 9 10 10 7 6 7 7 5 3 3 3 1 1 2 1 1 1 2 3 3 4 4 4 6 5 5 5 5 6 7 7 7 6 5 3 2 4 5 5 7 8 9 11 12 12 12 15 16 17
15 15 15 15 15 15 16 15 15 15 15 16 15 15 15 15 14 14 13 13 12 11 11 11 10 10 9 9 8 8 7 6 6 6 5 7 10 10 10 10 10 10 8 7 7 7 6 5 4 3 1 0 1 2 1 1 1 3 2 2 3 3 5 5 4 5 5 6 7 7 7 6 6 4 1 5 5 4 7 10 10 11 13 12 13 15 16 17
14 15 15 16 16 16 16 16 16 16 16 16 16 16 15 15 15 14 13 13 12 12 11 10 10 10 9 9 9 8 8 7 7 6 5 6 8 10 10 11 10 9 8 8 7 6 6 6 5 3 1 1 0 1 2 2 0 2 2 2 3 4 5 4 4 4 4 5 6 6 7 7 7 5 2 4 5 4 7 10 10 11 13 13 14 15 16 17
14 15 15 16 16 16 16 16 16 16 16 16 16 16 15 15 15 14 14 13 13 12 11 11 10 10 9 9 9 8 8 9 8 7 5 5 7 9 10 11 10 9 9 9 8 7 6 6 5 4 2 1 1 1 3 2 1 1 3 3 4 4 4 3 2 2 2 3 5 6 6 6 6 5 3 2 5 5 6 10 10 11 14 14 15 16 16 16
14 14 15 15 15 16 16 16 16 16 16 16 16 15 15 15 15 15 14 14 13 13 12 11 11 10 10 10 9 9 9 11 10 9 7 6 7 9 10 10 10 10 10 10 9 7 6 5 5 4 2 2 2 2 3 2 2 2 2 3 4 4 5 5 3 1 1 2 5 6 6 5 5 6 5 0 5 6 6 9 10 11 14 15 15 16 16 15
14 14 14 15 15 15 16 16 16 16 16 16 15 15 15 15 15 14 14 14 14 13 13 12 12 11 11 11 10 9 10 11 10 10 9 8 7 8 10 10 11 11 11 10 9 8 7 6 6 5 3 3 3 3 3 2 2 2 2 3 4 5 6 6 5 1 1 2 4 5 6 5 5 6 5 2 2 5 6 9 11 12 14 15 16 16 16 15
14 14 14 15 15 15 15 15 16 16 16 16 15 15 14 14 14 14 14 14 14 13 13 12 12 12 12 12 11 10 11 10 10 10 10 10 9 9 10 11 12 12 11 11 10 9 8 6 6 6 5 5 4 4 3 2 2 3 3 5 5 6 6 5 4 2 1 2 2 4 5 4 4 6 6 4 1 4 7 9 11 12 14 16 16 16 16 15
14 15 15 15 15 15 15 15 15 15 15 15 15 14 14 14 13 13 14 14 14 14 13 13 13 12 13 13 12 12 11 11 11 11 11 11 11 11 12 12 12 13 12 11 11 11 9 7 6 6 6 5 5 5 4 4 3 3 4 5 6 6 6 5 4 2 1 1 1 5 6 5 5 6 5 4 3 2 7 10 11 12 14 16 16 16 17 15
14 15 15 15 15 15 15 15 15 15 14 14 14 14 13 13 13 13 13 13 13 13 13 13 13 13 13 13 14 14 12 12 12 12 12 12 12 12 12 12 13 14 13 12 11 11 10 9 8 8 8 6 5 4 4 4 3 4 4 4 5 5 5 5 4 1 1 2 2 6 7 6 5 5 6 4 4 2 6 10 12 13 14 16 16 16 17 16
15 15 15 15 15 15 15 14 14 14 14 13 13 13 13 12 12 12 12 13 13 13 13 13 13 13 14 14 15 15 13 13 13 12 12 13 13 12 12 13 13 14 14 13 11 11 10 10 10 10 9 7 6 5 4 4 3 3 3 2 3 5 4 4 4 2 2 2 3 5 5 6 5 5 6 4 3 3 4 9 12 13 14 16 16 16 17 16
15 15 15 15 15 15 15 14 14 14 14 13 13 13 12 12 12 12 12 12 12 12 13 13 13 13 14 15 15 15 15 15 14 14 13 13 14 13 14 14 14 14 14 14 12 11 11 11 11 11 9 9 7 5 4 4 2 2 2 1 2 4 4 5 4 2 3 2 2 4 4 5 5 5 5 4 3 2 3 8 12 14 14 15 16 17 17 17
15 15 15 15 15 15 14 14 14 14 13 13 13 13 12 12 11 11 11 11 11 12 12 12 12 12 13 14 14 14 15 15 16 15 14 13 14 14 14 15 15 15 15 15 14 12 12 12 11 9 8 8 6 5 4 4 2 2 2 2 2 2 4 5 3 1 2 2 0 3 4 5 6 4 4 3 2 2 1 5 10 13 14 14 16 17 17 17
15 15 15 15 15 15 14 14 14 14 13 13 13 12 12 12 11 11 10 10 10 11 11 11 11 11 12 13 13 13 14 15 16 16 15 14 14 14 14 15 14 15 15 14 14 13 12 10 9 9 8 7 6 4 4 3 3 2 3 3 3 2 4 5 3 0 2 2 1 2 3 5 6 4 3 3 3 2 0 4 9 12 13 13 15 17 17 17
15 15 15 15 14 14 14 14 13 13 13 12 12 12 12 11 11 10 9 10 10 10 10 10 11 11 11 12 11 12 14 15 15 15 15 15 14 14 14 14 13 14 14 14 14 13 11 9 8 8 7 7 6 5 4 5 4 3 3 3 3 3 4 4 5 3 2 2 1 1 2 4 5 4 2 3 3 2 1 3 8 11 12 13 15 17 16 17
16 15 15 15 14 14 14 13 13 13 13 12 12 12 12 11 11 10 9 9 9 10 10 11 10 10 10 11 11 12 13 13 14 15 16 15 14 15 14 13 13 13 14 14 14 13 11 9 8 7 7 7 7 7 6 6 4 3 3 3 4 4 4 4 4 2 2 1 1 1 3 4 4 3 2 2 2 2 1 2 6 10 12 13 15 17 17 17
16 15 15 15 14 14 14 13 13 13 13 12 12 12 11 10 10 10 10 10 10 9 9 10 11 9 10 11 11 11 11 11 12 14 15 15 15 16 15 14 13 14 14 13 13 12 10 9 8 8 8 9 9 9 8 7 5 3 4 4 4 5 5 4 4 2 2 0 1 2 4 4 3 2 1 1 2 2 1 1 5 9 11 13 15 16 17 17
16 16 15 15 14 14 13 13 13 12 12 11 11 10 10 9 9 9 10 11 11 11 10 11 12 11 10 9 9 10 11 10 11 13 15 15 15 15 15 14 13 14 14 13 13 12 10 10 10 10 10 10 10 10 10 9 7 6 5 6 6 6 6 5 4 3 3 1 3 2 3 3 1 1 1 1 2 2 1 1 4 8 11 13 15 17 17 17
16 16 15 15 14 13 13 13 12 12 11 10 10 10 9 8 9 9 9 11 12 12 12 12 12 13 12 9 9 10 10 9 10 12 14 14 14 14 14 13 12 13 14 14 13 11 10 10 11 10 10 10 10 10 10 9 9 9 8 7 7 6 6 6 5 2 3 2 3 2 2 2 1 1 0 0 2 2 1 2 3 7 10 13 15 17 17 17
16 15 15 14 13 13 13 12 12 11 10 10 9 9 9 9 8 8 8 10 11 11 13 13 13 13 12 11 12 11 10 10 10 12 13 14 14 14 13 13 12 12 13 14 13 11 10 10 10 10 9 9 9 9 9 10 11 11 10 8 7 6 5 6 5 2 2 3 4 2 2 2 1 1 0 1 1 2 1 3 4 6 9 12 15 16 17 17
15 15 14 14 13 12 12 12 11 10 9 9 9 10 9 9 8 8 7 9 10 10 12 12 12 13 12 12 12 11 10 10 11 12 14 14 14 14 13 13 12 12 12 13 13 12 12 11 10 10 10 10 10 11 10 11 11 10 10 9 8 6 5 6 5 3 3 4 3 2 2 2 2 2 2 2 2 1 1 2 3 6 8 12 15 16 17 18
14 14 13 13 12 11 12 11 9 8 8 8 9 9 9 8 7 7 7 8 9 9 11 12 11 12 12 10 10 11 10 10 11 12 14 14 13 13 13 13 12 12 12 14 14 14 14 12 10 9 10 11 11 11 10 10 10 9 9 10 9 7 7 7 5 4 4 4 2 1 1 3 3 3 3 2 2 2 1 2 3 5 7 10 13 16 17 18
13 13 12 12 11 11 11 9 8 7 7 8 8 8 8 8 7 6 5 6 7 8 9 11 11 11 12 10 9 9 9 10 11 12 13 14 13 12 12 12 12 12 13 13 14 14 15 15 13 11 11 11 12 11 10 10 9 8 8 9 9 8 8 7 6 4 4 5 5 3 2 4 4 3 3 3 3 2 2 3 3 5 6 8 12 15 17 18
11 11 11 10 10 10 9 8 7 7 7 7 7 6 6 7 6 5 5 4 5 6 6 8 9 9 11 10 9 8 7 9 11 12 12 13 14 12 11 12 11 12 12 12 13 12 13 14 12 12 12 12 13 12 11 10 8 8 7 7 8 8 8 7 6 5 5 6 6 5 4 4 4 4 3 3 3 3 3 4 4 5 7 8 10 14 16 18
10 10 9 9 8 7 6 7 7 7 7 6 5 5 5 6 5 5 4 3 3 4 5 6 7 7 9 10 9 7 6 8 9 11 12 12 14 13 11 11 11 11 11 10 12 12 11 11 11 11 12 11 11 10 9 8 7 8 9 7 7 7 8 8 7 7 7 6 5 6 5 3 4 5 3 2 3 3 3 4 5 5 7 8 10 13 15 18
8 8 8 7 7 6 6 7 7 7 7 5 4 4 3 4 5 4 4 2 2 3 4 6 6 6 8 9 10 9 6 7 7 9 12 12 13 12 12 12 12 12 11 10 12 13 11 11 11 10 10 10 10 9 9 7 6 9 9 8 7 7 8 8 7 7 7 6 6 7 5 4 5 4 2 2 3 4 4 5 6 6 7 8 10 12 14 17
6 6 6 6 6 5 6 7 7 7 6 4 4 5 5 4 4 4 3 2 3 3 4 5 5 6 7 8 9 9 7 6 6 7 10 11 12 12 11 13 13 12 12 12 13 13 12 12 13 11 10 10 10 10 9 8 7 8 8 7 7 7 7 7 7 8 7 5 7 7 6 4 5 4 3 2 3 4 4 4 6 6 7 8 10 12 14 16
5 5 5 4 4 4 5 6 7 8 6 5 5 6 6 5 5 4 2 3 4 2 3 5 5 6 7 7 7 8 7 6 6 7 8 8 10 12 11 12 12 11 11 12 13 14 13 13 12 11 10 10 10 9 9 8 7 6 6 5 5 6 6 6 6 5 4 4 6 6 6 4 4 4 3 3 4 4 3 3 5 6 7 8 10 12 14 15
4 4 4 3 3 4 6 6 8 9 8 7 6 6 6 5 5 4 3 3 4 2 3 4 5 5 7 7 6 6 7 6 5 7 7 7 8 10 10 10 11 11 10 10 12 12 11 11 10 10 10 10 9 8 8 8 7 5 5 5 5 6 5 4 4 2 2 3 5 4 4 4 3 4 4 4 4 3 2 4 5 6 7 8 9 11 14 15
3 3 3 3 4 6 7 9 10 10 9 7 7 7 7 6 4 4 4 3 2 2 3 5 5 5 7 7 6 6 6 6 6 6 5 5 7 9 10 10 10 9 9 10 10 10 10 10 10 10 10 9 9 8 8 8 7 6 5 5 5 5 4 3 3 2 3 3 4 4 3 2 4 5 4 5 6 4 3 4 6 7 7 8 9 10 13 14
2 2 2 4 6 7 9 11 11 10 9 8 8 8 7 5 3 4 4 3 3 3 4 4 5 6 7 6 5 6 6 5 6 6 4 5 6 8 9 11 11 10 9 10 8 8 9 9 10 9 9 9 10 8 7 8 8 7 7 6 6 5 3 4 4 3 4 4 4 4 3 2 4 5 4 5 6 6 5 5 7 8 8 9 9 9 11 14
1 1 3 6 8 9 11 12 11 11 9 9 9 7 6 5 4 4 4 3 4 5 5 6 6 6 7 5 4 5 6 5 6 5 4 4 5 7 8 10 12 11 10 8 7 8 8 8 9 9 9 10 10 9 8 8 8 8 7 7 7 6 5 5 5 4 5 5 4 2 2 2 3 4 4 4 4 5 5 6 6 7 8 8 8 8 10 13
0 3 6 7 9 10 12 13 12 11 9 9 8 6 5 4 3 4 4 5 5 5 6 7 7 6 5 4 3 5 5 4 6 5 5 5 5 6 7 8 11 11 11 9 8 8 8 9 9 8 9 11 10 9 7 7 8 8 7 7 6 7 6 6 6 6 5 4 3 3 2 3 2 3 4 3 3 3 4 4 4 4 6 7 7 8 9 12
3 5 7 9 10 12 14 14 13 12 9 9 7 5 4 3 3 4 4 4 5 5 6 6 6 5 4 3 1 3 4 4 5 5 5 5 5 5 6 8 10 11 11 11 8 7 7 8 8 6 7 9 10 9 8 7 7 7 7 8 8 7 6 6 6 6 4 3 4 4 4 3 2 3 4 3 3 3 3 2 3 3 4 5 7 8 9 12
4 6 8 10 11 13 14 15 14 12 9 8 7 4 3 3 4 5 3 3 5 6 7 5 4 4 3 2 1 2 3 3 4 4 4 5 4 5 7 8 9 11 12 11 9 7 7 7 7 7 6 8 9 10 9 9 8 6 7 9 7 5 5 5 5 3 2 3 5 6 5 5 3 3 4 4 3 3 3 2 2 2 3 5 6 7 9 11
5 6 9 11 12 13 14 15 14 11 8 7 4 3 3 3 4 4 3 4 5 5 4 3 2 2 3 3 2 3 4 4 5 4 3 4 3 4 8 8 8 11 12 12 9 7 7 6 6 7 6 6 7 7 7 9 8 6 8 8 6 5 6 5 4 3 2 3 5 6 5 5 4 3 4 4 4 4 4 3 2 2 3 4 5 7 8 10
6 8 9 11 13 13 14 15 13 9 7 6 4 3 3 2 2 1 2 4 4 3 2 1 1 1 4 5 3 3 5 4 4 4 2 3 3 3 6 8 9 10 12 12 10 8 7 6 6 6 5 4 5 5 6 8 7 6 7 7 6 6 7 6 5 4 4 4 4 5 4 5 5 4 3 4 5 4 3 3 3 3 4 4 5 6 7 9
7 8 9 11 13 13 14 13 10 7 6 5 4 3 3 3 2 0 1 4 4 4 3 1 1 1 2 5 4 3 4 4 4 4 2 3 3 2 3 7 8 8 10 12 10 8 7 8 9 7 4 4 4 5 7 7 6 7 8 8 7 7 6 5 5 5 5 4 4 4 4 6 6 3 3 5 5 4 3 3 3 3 4 4 4 5 7 8
7 9 9 12 14 14 13 11 8 7 5 3 3 3 3 4 3 1 1 3 4 3 3 2 2 3 2 3 5 4 3 3 3 3 3 3 4 2 2 6 7 6 8 11 10 9 8 9 11 8 6 5 5 6 8 8 7 7 9 9 8 8 7 5 5 6 5 6 6 5 5 7 5 3 4 5 4 4 3 2 3 3 3 3 4 5 6 7
8 9 9 13 15 14 12 9 7 6 5 3 3 3 2 2 2 0 0 3 4 2 2 2 2 2 5 5 4 3 2 1 2 3 4 4 5 4 3 5 7 6 7 9 8 8 8 8 10 9 8 8 7 7 8 8 7 6 8 9 8 7 7 6 6 6 5 5 6 4 4 6 6 4 5 5 5 4 2 1 2 2 2 2 3 4 4 6
8 7 9 13 15 12 9 7 6 5 4 3 2 2 1 2 3 2 1 3 3 2 2 2 2 2 4 5 5 3 2 2 3 1 2 3 4 4 3 5 6 5 5 6 7 7 8 8 9 9 8 7 6 5 5 6 5 4 6 9 8 8 9 8 7 6 5 5 6 4 4 7 6 5 4 5 5 3 2 1 1 2 1 2 3 3 4 4
6 7 9 12 13 10 8 7 6 4 3 1 0 1 1 1 2 2 2 3 3 3 3 1 2 2 2 3 4 3 3 4 5 4 3 4 4 4 5 6 5 4 3 5 6 6 8 9 8 7 6 4 3 3 3 4 4 4 5 6 7 9 11 9 7 5 5 6 7 5 6 7 6 4 2 3 4 3 3 3 2 2 2 2 2 3 3 5
6 7 9 10 11 9 8 7 5 3 2 0 1 1 1 1 1 2 2 2 1 2 2 0 2 2 1 3 3 4 3 4 3 4 4 4 3 3 3 3 3 3 3 4 5 6 8 9 8 8 7 5 4 5 5 5 5 4 4 5 6 8 10 9 7 6 6 7 7 7 7 7 6 3 2 3 3 3 3 3 3 3 2 2 2 3 3 5
6 7 8 9 10 9 8 7 5 4 3 1 1 2 0 2 1 1 1 1 1 2 1 1 1 0 1 3 3 2 3 3 3 4 3 3 2 1 0 1 2 4 3 4 4 5 6 7 8 8 8 8 8 8 7 5 5 6 6 6 6 7 8 7 5 7 8 8 8 8 8 6 5 4 3 4 4 3 4 3 3 3 2 2 3 3 3 5
6 7 7 7 8 8 7 6 6 5 4 2 2 3 1 2 1 1 0 1 1 2 1 1 1 0 1 3 3 3 2 2 3 3 2 1 1 1 1 1 2 3 2 4 4 5 6 7 8 9 10 9 8 9 7 6 7 8 7 6 6 5 6 6 7 10 9 7 7 9 8 7 6 5 3 4 3 3 4 4 3 3 2 2 3 3 3 4
5 6 7 7 7 7 6 5 5 5 5 4 3 3 2 2 2 2 1 1 1 2 2 1 2 1 2 3 4 4 3 1 1 1 1 1 1 0 2 1 1 0 0 2 3 5 6 7 9 10 10 9 8 8 8 6 7 8 7 7 7 7 6 7 9 10 10 8 8 9 8 6 6 5 4 4 3 3 4 4 3 2 2 2 2 3 4 4
5 5 6 5 6 7 6 4 5 4 4 4 4 3 2 2 2 3 1 2 1 1 2 2 1 3 3 3 4 4 3 1 1 1 1 1 1 1 2 1 0 2 2 1 3 4 5 6 8 9 9 9 8 7 6 6 6 7 7 8 8 7 6 6 6 6 8 7 8 8 6 4 4 5 4 3 3 3 3 4 3 2 2 2 2 3 4 5
5 5 5 4 5 7 6 5 5 5 3 3 3 3 2 2 2 1 0 1 2 2 1 1 2 2 3 3 3 3 2 2 2 2 2 1 2 2 1 1 1 2 2 0 2 4 4 4 6 7 7 9 7 6 6 6 6 7 7 8 8 7 6 5 2 6 7 5 6 6 5 4 4 4 3 2 2 3 4 4 3 3 2 2 2 2 4 5
6 7 6 5 6 7 6 5 6 6 4 3 3 3 3 3 2 2 0 1 0 2 2 1 2 3 1 2 1 1 2 2 3 4 4 3 3 4 4 4 2 2 1 1 1 3 3 4 4 4 6 8 7 6 6 6 4 3 4 5 7 7 4 2 4 6 6 6 5 4 4 4 5 3 2 2 2 3 4 3 3 3 2 2 2 1 2 3
7 8 7 6 7 7 7 6 6 5 5 4 4 5 5 3 2 1 2 2 2 1 1 1 2 3 3 1 1 3 3 3 4 5 5 5 5 6 6 7 5 3 3 1 2 3 3 3 4 4 5 8 8 6 6 3 1 2 4 5 3 2 5 5 5 4 4 5 5 4 4 4 4 3 3 4 4 4 5 4 3 3 2 2 1 1 1 2
Wind_Direction
283 284 284 284 285 285 286 286 286 286 286 286 285 285 283 283 282 281 281 279 278 277 276 274 272 270 269 272 274 276 277 272 263 254 251 243 223 205 196 196 196 190 180 175 167 160 164 168 160 134 74 51 38 34 48 52 56 54 49 46 43 45 46 47 43 34 28 24 23 20 20 29 44 137 173 169 162 166 170 171 169 170 168 165 158 153 155 158
283 283 284 284 284 285 285 286 286 286 285 285 285 284 283 282 281 280 279 278 276 275 274 272 270 267 266 268 269 271 271 263 259 256 249 236 214 203 201 198 194 191 186 187 182 171 167 167 160 145 91 53 38 41 56 57 60 54 51 45 38 39 51 56 43 37 34 27 30 27 28 32 34 133 167 171 170 170 174 180 170 171 173 167 160 156 157 159
282 283 283 283 284 285 285 285 286 285 285 285 284 284 283 281 280 279 278 276 275 273 272 270 266 263 262 263 264 266 264 258 255 254 246 227 211 205 204 196 193 191 192 197 191 183 181 174 160 154 133 50 32 37 48 53 56 47 52 40 26 29 51 66 46 36 32 25 33 33 37 36 33 104 161 168 174 181 182 184 177 177 179 170 163 160 160 162
281 282 282 283 284 284 285 285 285 285 284 284 283 283 282 280 279 278 276 275 273 271 269 268 262 259 258 258 260 260 255 251 246 247 243 222 211 207 202 195 194 195 200 206 202 200 208 212 183 171 157 39 7 21 25 37 52 48 58 32 24 33 41 69 54 23 12 18 34 40 41 38 40 67 137 152 163 194 197 189 183 182 182 172 164 163 163 165
282 281 281 282 283 284 285 286 286 285 284 283 282 282 280 279 277 275 274 272 270 268 267 264 259 255 254 255 254 251 246 241 238 242 244 221 209 206 201 197 197 200 206 210 214 215 221 233 216 194 185 339 1 25 355 278 85 42 37 359 4 22 33 69 72 19 11 21 33 42 43 44 50 53 117 158 166 191 195 190 186 184 183 177 167 164 166 168
284 283 282 282 283 284 285 286 285 285 284 283 282 280 279 277 274 273 271 269 267 265 263 260 257 252 252 253 246 240 236 233 233 235 237 220 206 204 200 198 200 203 209 214 220 222 225 230 219 209 220 280 272 339 315 284 150 19 0 341 339 354 19 66 89 32 20 30 32 44 48 53 56 42 68 176 187 182 186 187 187 186 183 180 172 167 169 171
287 287 286 284 284 284 285 286 285 284 284 283 282 279 277 275 272 270 267 266 264 261 259 257 253 249 251 247 238 236 236 234 231 225 224 213 204 202 199 200 202 206 211 215 218 221 227 227 226 222 218 278 271 286 296 290 237 329 351 343 335 338 345 2 72 51 29 36 41 54 55 61 62 42 53 186 199 179 183 186 187 186 182 181 178 173 171 172
289 289 289 288 287 286 285 285 284 283 283 282 281 279 276 274 270 267 264 262 261 258 256 254 249 247 247 241 235 238 239 236 230 223 221 214 208 205 200 201 205 207 210 215 216 218 229 234 242 237 227 266 269 283 290 306 297 282 316 325 335 335 331 335 354 75 104 33 51 59 45 53 63 51 55 218 207 189 190 187 186 186 183 185 183 178 175 173
290 290 290 290 290 289 287 286 285 283 282 281 279 278 276 273 269 266 263 260 258 255 254 251 247 244 242 239 237 238 237 233 225 221 223 223 221 212 204 205 206 207 209 215 216 218 230 235 243 243 243 262 265 281 289 310 304 269 278 306 324 321 321 333 340 21 131 51 65 57 26 36 52 44 39 11 214 198 194 185 185 186 187 188 186 183 179 176
291 291 291 292 292 292 291 288 286 285 282 280 278 277 275 272 269 265 261 258 255 253 252 248 245 242 239 237 235 236 234 229 225 223 226 227 224 216 211 209 207 207 210 213 214 217 224 227 240 253 255 260 266 277 283 275 283 272 282 305 308 309 318 330 334 329 125 107 93 52 22 31 43 31 22 15 35 190 189 183 185 188 190 189 188 187 184 182
292 292 292 292 292 293 292 291 289 286 283 280 277 276 273 271 268 264 261 257 254 252 249 245 243 240 238 237 234 236 234 229 233 231 227 225 221 218 214 211 210 209 210 213 214 216 224 235 251 263 256 253 264 273 275 262 276 281 287 311 305 312 323 318 325 326 93 79 91 60 34 26 32 20 11 23 46 154 183 184 187 189 190 189 189 189 188 187
293 293 293 292 292 292 292 292 290 287 284 280 277 274 272 269 266 264 260 257 254 250 247 244 242 240 239 240 236 235 235 232 235 233 229 226 223 223 218 214 214 211 211 214 217 220 230 245 254 259 251 244 253 265 270 259 273 289 286 309 311 335 334 313 334 354 78 49 90 72 33 14 18 8 13 40 52 95 180 186 189 189 190 189 190 189 190 191
294 293 293 293 292 292 292 292 290 288 284 279 275 273 270 267 265 262 259 256 253 248 246 243 242 241 240 242 238 235 237 236 234 234 234 230 226 226 223 221 219 215 215 217 223 229 235 247 252 255 249 234 237 248 263 262 270 290 282 285 317 353 344 323 358 46 54 54 114 74 16 356 357 358 21 47 53 69 176 188 189 189 189 190 190 190 192 193
293 293 293 293 292 291 290 290 290 288 283 277 273 270 267 265 263 260 258 255 251 247 245 243 242 242 241 243 241 239 238 234 232 234 235 230 224 224 225 226 224 219 219 223 230 237 243 254 255 253 242 226 234 252 265 266 251 271 290 293 323 351 340 331 360 64 40 15 131 65 10 349 352 357 25 43 50 67 172 191 190 188 187 190 191 191 192 193
293 293 293 293 292 290 289 288 288 287 283 276 269 267 265 262 260 257 256 253 249 246 244 242 243 244 246 246 242 241 237 230 232 234 233 229 222 223 225 226 225 221 220 225 232 240 250 257 251 243 235 227 237 254 257 257 242 233 267 303 317 336 337 337 344 110 62 8 116 48 10 349 355 360 24 41 44 50 160 186 191 190 185 189 191 191 192 192
292 293 292 293 292 290 288 286 286 285 282 274 267 265 262 259 256 254 253 249 246 244 241 242 241 240 245 245 241 242 237 230 231 232 232 229 221 221 222 223 224 221 221 226 233 243 251 253 244 235 231 228 228 237 251 256 253 228 218 272 297 314 339 350 345 266 113 61 341 4 10 355 358 6 26 42 47 37 64 177 190 192 186 189 192 193 193 191
291 292 292 292 291 290 287 285 285 284 280 273 265 261 260 258 254 252 251 248 245 241 240 243 242 239 241 241 239 240 235 232 231 227 228 227 219 218 218 220 224 220 221 227 234 240 243 241 237 234 230 223 215 212 233 242 245 243 228 263 282 295 324 336 339 334 127 93 349 331 358 354 2 15 37 45 51 46 37 174 189 191 188 191 193 194 196 193
289 291 291 291 290 289 286 284 283 282 278 271 262 257 258 257 253 251 249 247 246 242 243 243 238 236 237 237 239 239 234 233 229 222 222 222 216 215 215 217 220 218 218 224 231 233 233 233 233 236 232 222 210 199 210 220 214 218 226 258 287 298 305 299 317 327 157 113 349 331 344 357 10 14 30 35 45 50 43 159 186 191 190 192 192 193 196 195
288 289 290 289 289 288 285 283 282 280 276 267 258 253 253 254 251 250 249 247 244 240 242 236 227 232 238 239 240 237 231 227 222 218 219 218 215 216 217 217 217 214 213 217 225 226 225 234 236 234 229 220 214 206 210 217 215 232 244 254 275 289 297 292 293 264 186 318 303 305 347 6 14 3 16 15 24 43 48 125 181 192 193 193 192 195 195 193
286 287 288 288 288 287 284 282 280 278 272 261 254 249 246 250 249 250 254 251 244 241 243 234 227 238 246 245 237 226 223 222 217 216 216 215 215 217 220 219 215 213 212 212 220 224 222 233 235 228 223 219 217 215 220 230 240 257 264 265 270 279 291 292 292 260 200 256 278 291 354 6 1 350 344 350 12 29 62 119 181 191 194 194 193 196 196 194
285 285 286 286 286 285 283 281 278 274 267 254 248 244 242 246 246 253 260 257 249 243 244 238 233 241 244 243 240 226 220 223 220 215 214 213 213 215 216 216 213 214 215 211 216 224 220 226 228 219 218 221 223 223 227 236 244 253 256 263 273 275 278 285 296 267 202 261 280 287 353 340 331 350 336 13 11 9 100 149 178 189 193 194 194 196 196 195
283 283 284 284 284 283 281 280 277 270 259 247 242 239 239 242 245 255 262 260 255 244 239 238 237 240 239 240 242 230 222 227 225 218 212 210 212 214 212 212 212 214 216 211 214 221 219 223 222 215 222 230 233 233 235 242 247 252 251 253 266 269 271 287 301 285 248 281 273 265 320 316 317 334 300 219 297 342 171 175 175 183 190 194 195 196 196 195
282 282 283 283 282 281 279 279 273 261 247 238 234 232 236 243 251 261 261 255 256 248 238 235 232 234 236 237 232 223 222 226 225 220 212 207 211 212 208 209 212 213 214 211 212 215 215 222 220 216 227 235 241 243 245 251 252 249 245 241 252 262 260 273 288 296 307 303 270 272 319 314 314 316 293 249 255 305 249 194 180 181 189 195 197 197 197 196
281 281 281 281 281 278 278 276 262 244 236 232 231 232 237 248 255 264 261 248 249 250 238 229 226 230 232 228 220 219 222 221 219 218 210 205 207 209 209 210 211 213 214 212 212 216 219 227 227 222 228 234 244 252 250 252 253 251 245 235 238 249 252 255 263 282 311 316 289 271 312 295 291 290 290 285 276 282 247 203 194 193 191 196 199 199 199 199
280 280 279 279 278 276 276 265 240 234 237 231 234 238 241 246 247 251 252 243 243 244 234 224 224 230 226 218 216 219 219 218 217 213 210 207 204 205 210 210 209 212 215 215 216 221 229 234 233 233 237 237 243 251 247 244 250 258 250 231 225 237 252 255 254 267 294 293 275 241 255 285 284 273 276 296 299 282 243 214 210 204 196 197 202 202 201 201
278 276 277 277 276 276 268 240 228 242 241 230 233 239 239 233 228 227 225 229 241 233 221 215 216 221 218 214 214 210 212 222 219 210 208 209 206 205 210 209 209 210 211 216 219 221 228 230 228 231 238 241 243 248 245 235 241 255 249 230 223 233 250 256 255 258 264 272 263 240 247 282 288 280 272 282 288 276 245 226 219 210 203 201 203 203 203 202
276 274 276 275 275 273 248 224 233 240 229 225 229 232 230 213 202 204 203 218 241 214 201 206 207 210 209 208 203 195 208 219 212 208 207 207 207 206 210 213 211 212 212 219 224 220 221 229 229 228 234 239 239 243 241 228 229 243 240 232 234 243 250 255 260 259 259 275 269 240 243 275 284 282 274 266 272 267 251 234 227 219 210 207 205 205 204 203
276 274 273 271 271 261 232 224 230 223 217 225 226 211 197 187 184 179 181 201 212 191 189 196 197 200 199 196 194 196 206 202 195 204 202 202 206 203 209 214 211 218 224 223 226 222 220 231 234 229 233 237 232 234 237 228 224 236 237 236 239 239 241 250 262 264 262 277 274 247 240 265 279 284 281 262 266 266 257 235 227 222 213 211 209 207 206 205
278 273 271 268 265 247 221 214 211 204 206 210 202 184 164 159 155 144 149 170 173 182 189 186 188 192 189 187 194 201 206 205 208 204 195 201 210 208 212 215 213 224 228 221 225 226 223 232 237 234 236 235 229 231 232 224 227 238 241 241 242 238 243 255 262 266 268 267 262 244 226 244 275 278 263 264 274 267 256 234 223 221 215 215 213 210 208 207
280 274 271 265 249 218 199 198 195 189 182 171 168 165 154 145 138 128 127 152 157 168 170 174 183 181 178 180 191 198 202 216 216 195 194 207 213 213 218 220 219 225 229 224 226 228 229 237 240 234 231 227 225 228 223 218 229 242 239 234 243 248 254 263 259 259 263 257 259 246 224 232 272 277 252 251 275 262 231 217 218 216 217 219 217 213 211 209
284 275 265 243 208 187 178 173 170 165 159 154 153 150 141 134 130 124 130 144 145 147 152 168 178 171 172 178 184 190 198 215 202 179 196 214 213 214 218 221 221 224 230 227 225 229 232 237 232 225 227 221 218 230 231 228 233 233 222 220 236 251 257 262 260 244 204 240 265 250 223 218 243 270 256 242 266 271 215 213 214 212 218 220 219 216 212 210
288 268 246 210 187 178 169 160 153 148 147 147 142 134 127 122 122 129 136 135 131 151 159 167 178 175 173 177 185 187 187 200 198 188 200 209 210 213 212 212 211 215 225 222 223 230 230 226 219 215 220 212 208 228 241 239 233 219 213 220 231 245 253 242 240 222 202 241 263 227 203 218 239 261 264 244 253 263 243 224 215 214 218 220 222 219 214 211
291 259 209 179 169 164 161 157 152 145 143 140 133 126 121 120 126 136 136 120 109 134 140 146 164 165 163 169 184 186 180 190 199 203 208 201 206 215 214 212 205 204 213 216 223 231 228 226 216 206 212 209 203 215 232 229 219 211 211 213 214 216 223 230 235 229 222 251 262 220 208 258 265 273 273 253 251 251 245 230 219 216 215 217 221 219 216 213
295 197 154 153 155 157 157 153 150 146 139 133 127 118 114 123 134 135 136 119 107 112 114 123 141 149 154 163 176 178 177 193 205 205 207 200 206 218 219 216 208 204 207 215 223 220 217 218 209 206 214 213 207 207 212 209 205 214 214 205 208 207 204 216 220 215 222 246 259 233 229 254 266 279 278 275 273 261 250 238 230 226 219 215 218 220 219 216
133 145 143 143 147 152 154 152 149 145 138 128 122 114 111 123 126 119 132 129 114 108 108 117 130 138 151 160 174 186 181 192 205 202 201 202 209 215 210 209 207 202 200 207 214 208 210 216 212 215 216 210 209 207 199 193 204 221 215 200 212 212 205 214 222 221 225 241 251 247 250 246 254 284 298 308 303 292 269 241 235 237 222 214 219 223 222 218
125 134 139 141 142 144 148 150 148 144 138 124 116 115 111 116 118 107 117 136 131 119 114 121 131 135 150 154 164 199 192 192 198 197 206 213 223 221 205 199 199 197 194 197 202 197 204 221 220 215 213 209 209 208 202 195 202 218 215 209 217 211 204 220 240 247 237 229 241 238 240 258 280 298 310 318 312 327 322 253 235 232 209 209 221 226 226 222
124 131 138 142 142 141 146 149 145 142 133 117 116 123 96 92 124 114 111 144 140 121 112 121 144 148 156 160 173 190 177 181 187 189 206 215 231 223 206 201 195 195 194 191 198 204 206 228 224 206 216 223 209 203 210 204 193 204 216 214 217 218 214 218 230 250 236 222 239 236 232 241 253 281 302 307 302 325 334 296 266 243 209 215 226 228 229 226
127 133 141 146 145 142 146 148 144 138 124 107 112 120 91 101 131 116 121 146 135 126 114 103 132 172 182 182 203 179 157 159 171 174 193 205 226 211 199 202 197 197 198 194 201 211 205 221 222 200 208 219 194 182 205 214 208 211 209 201 202 214 220 220 215 216 218 231 245 246 241 234 234 262 290 286 281 303 327 323 303 265 235 233 238 236 233 230
131 133 138 145 145 143 147 149 143 132 114 102 103 99 93 128 150 131 185 162 143 147 148 82 69 216 213 204 194 170 168 171 173 175 189 197 222 226 203 205 207 204 198 194 201 209 198 202 209 197 188 185 177 176 194 213 222 222 210 205 207 202 203 214 217 212 217 233 244 245 245 241 243 261 269 262 274 295 316 316 298 267 248 243 250 249 240 234
132 133 137 145 144 145 150 150 143 131 120 114 109 95 87 113 129 285 214 160 144 147 145 93 42 17 228 209 196 173 185 202 187 182 201 198 213 254 210 195 205 207 194 188 199 209 203 201 204 206 189 169 189 205 201 205 212 209 208 211 210 201 202 220 232 231 226 229 236 232 239 251 256 266 261 259 278 292 291 299 299 279 261 256 261 259 248 238
133 134 143 151 149 149 149 147 146 142 135 123 106 101 102 114 120 1 309 133 129 151 156 113 89 56 63 178 193 184 178 209 207 202 234 225 213 237 207 181 188 197 190 190 199 206 206 204 206 216 215 200 220 228 211 206 203 201 204 206 205 206 209 221 246 254 243 230 230 222 230 251 256 258 262 266 282 293 296 309 310 289 265 263 271 270 256 237
139 140 150 155 155 153 148 147 152 149 140 129 119 126 125 120 127 67 11 119 109 123 158 110 97 77 72 100 149 169 157 180 215 225 239 222 202 213 215 181 172 168 176 190 205 209 206 204 208 216 216 216 240 247 223 212 206 205 210 209 208 212 211 217 242 257 260 246 234 221 231 250 257 264 271 275 282 291 295 303 316 300 264 253 266 275 265 234
142 145 154 160 161 156 149 152 156 148 145 138 138 184 193 129 140 139 106 126 115 92 94 106 129 111 89 91 100 123 142 97 84 125 195 169 170 186 168 144 148 146 161 193 215 219 209 203 206 213 217 228 247 246 226 215 200 201 221 219 218 223 220 223 233 244 264 251 228 231 257 257 263 275 280 283 291 303 300 276 307 321 286 258 256 271 269 229
147 152 155 163 166 160 151 158 160 155 158 134 40 234 249 102 150 164 133 134 142 116 93 126 180 134 124 126 94 84 115 103 77 65 94 128 140 135 119 119 133 144 179 199 206 208 203 199 199 204 212 230 244 227 222 225 211 214 236 231 229 229 226 231 239 244 260 241 218 230 258 258 265 277 282 293 306 319 305 284 298 315 289 270 264 271 264 226
146 152 155 163 170 167 163 167 171 175 173 338 306 231 304 354 209 186 162 152 153 132 98 94 186 145 160 170 119 77 95 105 94 84 91 115 133 121 107 114 152 175 197 190 178 187 196 196 194 194 196 202 212 213 214 225 231 238 245 245 247 239 227 229 242 248 249 242 234 237 240 248 266 276 285 294 301 314 305 293 303 309 283 263 261 261 256 227
147 152 154 160 168 174 181 189 196 191 184 273 266 196 152 353 321 263 178 188 226 186 113 64 141 111 211 186 162 105 93 90 102 116 105 100 137 175 45 353 200 195 190 178 177 186 193 197 195 192 196 205 215 219 219 230 247 257 264 264 261 245 221 217 243 252 243 240 246 242 225 221 240 252 277 286 283 299 306 301 309 314 294 265 254 245 243 227
156 159 155 156 169 178 189 202 200 195 209 241 221 198 264 345 349 318 280 219 211 189 165 66 50 61 187 182 173 156 136 89 87 116 139 128 170 230 4 18 199 196 186 191 202 195 194 208 207 200 207 218 223 227 231 242 249 253 262 266 271 263 232 228 251 250 237 231 241 241 223 211 226 243 266 276 277 298 304 299 300 301 287 262 250 239 233 222
163 165 159 158 172 177 178 195 203 214 239 238 204 200 252 324 6 352 306 221 143 145 179 201 18 39 153 166 172 181 188 159 106 132 205 213 211 5 27 87 175 49 274 213 213 190 188 212 215 208 219 229 230 230 236 247 245 241 249 261 272 267 243 253 267 247 223 220 225 224 216 214 235 252 253 261 275 287 298 304 304 304 291 257 240 235 233 223
172 175 172 170 183 185 183 204 224 236 246 230 202 195 219 277 333 346 329 186 163 123 163 173 71 53 82 129 159 181 202 207 209 230 252 276 246 74 55 134 200 359 353 228 218 191 183 213 217 208 218 231 233 236 249 264 256 248 256 263 264 258 252 276 277 216 191 201 205 198 197 216 248 258 255 280 303 303 315 323 327 334 307 250 238 242 241 232
184 188 193 201 205 199 198 213 225 225 224 212 201 206 227 278 289 284 73 143 205 217 203 197 188 111 87 97 126 157 187 206 228 228 224 248 226 186 154 204 269 323 337 286 214 193 188 219 219 205 214 227 232 239 258 272 266 264 269 262 258 266 278 285 237 175 174 186 186 178 182 218 265 274 274 317 336 327 325 324 321 327 310 242 244 257 250 240
206 205 208 214 214 209 210 221 226 220 212 204 216 234 260 297 289 237 213 32 125 207 235 271 232 207 153 77 86 182 215 230 250 249 242 242 236 222 220 229 244 279 307 316 191 187 196 221 220 201 210 224 228 239 259 266 266 291 313 294 274 274 273 205 173 176 180 177 174 179 196 230 268 290 300 310 315 307 303 303 308 315 298 237 232 255 260 246
220 216 212 211 214 216 219 226 230 221 215 224 250 262 264 276 298 254 237 306 338 272 241 277 242 225 221 253 279 256 252 256 264 270 266 259 262 256 242 242 247 244 242 242 211 201 197 211 223 208 208 224 233 242 251 239 196 352 345 333 296 198 141 140 159 179 194 191 192 204 222 244 269 285 286 288 295 295 286 283 296 303 282 245 224 228 258 245